Theta_e
313 315 315 315 316 319 321 319 316 316 314 311 311 313 313 312 311 310 310 313 312 311 316 318 315 317 316 316 315 313 324 339 344 346 347 348 350 349 346 345 342 340 339 336 336 336 336 336 337 337 336 336 336 337 337 337 337 337 338 337 336 336 335 335 335 335 335 335 334 334 334 334 334 335 334 333 333 333 333 335 335 334 334 334 333 332
312 316 317 317 320 325 327 324 318 313 312 311 312 313 313 312 311 309 309 311 311 312 320 321 316 317 318 317 316 315 323 334 338 343 346 347 349 348 346 345 342 340 338 336 336 335 335 336 336 336 336 336 336 336 337 337 337 338 338 337 337 336 336 335 335 335 335 334 334 334 334 334 335 335 334 333 333 334 334 335 335 334 334 334 333 333
314 317 316 317 321 322 324 324 319 314 314 313 313 313 313 313 312 312 312 313 312 313 320 321 316 316 316 315 315 315 318 323 329 338 344 347 348 347 346 344 342 340 338 338 337 335 334 335 335 336 336 336 336 336 336 336 337 338 338 337 337 336 336 335 335 335 335 335 334 333 333 334 335 335 333 333 334 335 335 335 334 333 333 333 333 333
317 319 315 316 319 316 315 319 318 314 314 315 314 313 313 312 311 314 315 317 316 315 317 317 316 317 317 317 317 316 316 314 318 330 339 344 347 346 345 343 341 340 339 339 336 334 334 334 335 335 335 336 336 335 335 335 336 337 337 337 336 335 335 335 336 336 336 335 334 334 334 335 335 334 334 334 335 335 335 334 334 333 333 333 333 333
317 315 313 314 316 315 313 315 315 312 315 320 318 313 313 312 311 313 313 315 319 321 320 315 317 323 323 323 321 319 318 312 311 322 335 342 344 344 343 341 339 339 338 338 336 335 334 334 335 334 335 336 335 334 334 334 335 336 336 337 336 335 335 335 336 336 336 335 335 335 335 335 334 334 334 336 336 335 334 334 333 333 333 333 333 333
316 314 314 313 313 313 313 315 317 315 316 320 320 316 312 312 313 313 312 313 319 325 321 314 319 328 327 326 322 319 324 324 319 320 330 340 344 342 343 342 339 338 337 336 336 335 334 334 335 334 334 335 334 333 333 333 334 335 336 336 336 336 336 336 336 336 336 335 335 335 335 335 334 335 335 335 334 334 333 333 333 333 333 333 333 332
314 313 313 314 315 313 312 315 317 316 314 315 320 320 313 311 313 313 312 314 320 323 319 315 318 322 322 323 321 321 332 340 333 329 331 340 343 341 342 341 339 338 336 335 336 335 334 333 334 334 333 333 332 332 332 333 333 334 336 336 336 336 336 337 337 335 335 335 335 335 335 335 335 335 335 334 333 332 332 332 332 332 332 332 331 331
313 313 313 313 315 314 312 313 314 314 314 316 322 322 315 313 313 313 313 315 321 322 322 324 320 316 319 323 322 325 338 343 339 338 337 339 341 341 342 340 338 338 336 336 336 335 334 333 334 333 334 333 331 332 332 332 333 335 336 336 336 337 336 337 336 335 334 335 335 335 335 335 335 334 333 333 332 332 332 332 332 331 330 331 331 331
314 315 315 313 313 313 312 314 314 312 312 316 322 319 314 313 313 314 315 318 320 317 320 326 319 314 325 333 329 332 345 346 341 339 338 338 340 342 343 340 338 337 335 335 335 334 333 332 333 333 333 332 331 331 332 332 333 334 335 335 335 335 336 336 336 335 334 334 335 336 336 335 335 334 333 333 333 332 331 331 330 329 328 328 329 329
313 315 314 312 313 314 313 314 314 312 312 315 318 316 313 316 317 316 317 319 318 316 317 323 320 314 323 339 340 340 346 343 337 333 335 339 340 342 343 340 338 337 335 335 334 333 332 331 333 333 332 332 330 331 332 332 332 333 334 334 334 333 335 336 336 335 334 334 335 336 336 335 334 333 332 333 333 332 331 330 329 327 326 326 326 326
313 314 313 312 314 313 312 312 311 312 312 312 313 314 314 320 322 322 325 322 316 318 318 320 324 317 318 332 337 337 339 335 331 331 334 340 341 342 343 340 338 336 334 334 334 332 331 330 331 331 331 330 329 330 331 331 331 332 332 333 333 332 333 336 335 335 334 334 335 336 336 335 333 332 332 332 332 331 331 329 329 327 325 325 325 324
314 312 313 315 316 312 309 310 310 309 310 310 316 317 316 321 320 321 328 323 316 322 323 320 322 317 317 330 332 331 333 332 332 330 333 341 343 342 342 338 337 336 335 334 332 330 328 327 327 328 329 329 329 330 330 330 331 331 332 333 333 331 333 335 335 335 334 335 336 336 335 334 332 332 331 331 330 330 330 329 330 329 326 325 325 325
316 314 313 314 316 313 309 312 312 309 308 310 316 318 316 319 318 319 326 322 319 324 322 319 319 317 322 330 331 332 333 334 334 329 332 341 342 341 339 336 335 333 332 330 327 326 326 326 326 326 328 328 329 329 329 330 330 331 332 333 331 330 332 335 334 334 334 335 336 335 335 333 331 331 330 329 328 328 329 329 329 329 327 325 325 326
319 319 313 310 314 313 311 314 314 313 312 310 314 317 317 319 319 322 325 320 320 322 318 315 316 319 328 330 330 334 334 335 336 333 336 341 340 338 335 333 332 329 327 326 326 327 327 327 326 326 328 328 328 330 330 330 330 331 331 331 330 330 332 334 334 334 335 335 335 335 335 333 331 330 329 327 327 328 328 328 327 327 325 325 325 326
320 322 318 313 314 313 311 312 313 316 315 310 313 315 317 324 324 324 325 320 318 321 320 319 317 322 334 335 332 334 334 334 337 335 336 337 334 333 331 330 330 327 326 326 327 328 328 327 326 327 327 328 329 330 330 330 330 330 331 331 329 328 329 330 330 332 333 334 334 335 335 334 332 329 328 328 327 327 328 327 326 325 324 325 325 325
315 319 322 315 311 311 311 313 313 315 315 312 313 314 314 322 325 322 322 322 322 323 324 325 325 326 331 334 331 333 334 333 334 332 332 332 330 329 330 329 329 328 327 326 327 328 327 326 326 327 328 328 329 330 331 331 331 331 332 330 327 325 326 326 327 329 330 330 331 334 335 333 332 330 328 328 328 327 327 326 325 325 325 325 325 325
314 319 323 316 313 313 313 314 314 313 317 315 312 315 315 315 321 322 318 318 321 322 321 324 332 332 329 330 330 332 335 334 333 332 330 330 329 329 330 330 330 329 328 326 327 327 327 326 326 328 329 329 330 331 331 332 331 332 332 328 325 325 326 327 329 331 332 332 331 331 332 332 331 330 328 327 328 328 327 326 325 325 325 325 324 325
316 321 324 316 313 315 312 312 312 311 315 318 315 317 315 311 318 326 325 324 321 321 325 328 337 336 331 333 335 333 336 335 333 332 330 328 329 329 330 330 330 330 328 327 326 326 327 327 327 328 329 329 330 331 331 331 331 331 329 325 325 326 327 329 330 331 332 333 331 329 330 330 330 329 327 326 328 328 326 325 325 325 325 324 324 324
314 318 327 318 312 316 316 312 314 313 312 317 319 317 315 317 322 321 323 326 321 320 329 329 329 332 334 337 338 334 335 335 333 331 330 329 329 330 330 330 330 330 329 328 327 327 327 327 327 328 328 329 330 330 331 331 329 327 325 324 326 328 328 329 329 329 330 329 328 327 328 328 328 326 325 325 327 326 325 325 325 325 325 324 324 323
315 315 325 322 312 313 318 318 321 321 313 311 315 313 317 327 328 320 320 324 322 324 330 329 329 334 336 333 331 330 331 334 333 331 331 331 330 330 330 330 330 330 328 328 328 328 328 327 328 328 328 328 329 330 331 329 326 325 324 325 327 328 328 328 327 328 327 326 326 326 326 326 326 324 324 325 325 324 324 325 326 325 324 324 324 323
319 314 321 329 321 314 318 320 321 323 316 312 314 315 319 324 321 320 320 319 323 328 329 330 335 340 335 327 327 328 329 332 332 331 331 330 330 330 329 329 330 329 328 328 327 328 328 327 327 328 328 328 328 329 329 327 326 325 325 325 326 327 328 328 327 327 326 325 326 325 325 325 325 324 324 324 323 324 325 326 325 325 325 325 324 324
321 318 321 330 328 320 321 319 317 318 316 317 321 322 326 327 321 321 321 317 322 327 328 332 340 341 333 325 327 328 328 330 330 329 329 329 329 329 328 328 328 328 328 328 327 328 328 328 327 327 327 328 328 327 326 326 327 326 326 325 325 327 328 327 326 325 326 327 327 325 325 325 325 324 324 323 323 324 325 325 324 325 325 324 324 324
326 326 323 325 324 320 318 317 317 317 317 321 326 326 328 330 326 325 325 325 322 319 323 329 335 337 329 323 327 328 327 329 329 328 328 328 328 327 327 327 327 327 328 328 328 328 327 327 327 326 326 326 326 325 325 326 327 327 326 326 326 327 327 327 326 326 327 327 327 325 325 325 324 324 323 323 324 324 323 323 324 324 325 324 324 322
329 326 323 327 331 328 324 322 319 317 320 325 326 325 325 327 330 331 330 332 329 325 326 327 329 334 330 324 327 327 325 328 328 328 328 328 328 327 327 326 326 326 326 326 326 326 325 326 326 326 326 325 325 325 325 326 325 325 325 326 327 327 327 328 328 328 328 327 326 325 325 324 323 323 322 323 323 323 322 323 323 324 324 324 321 319
326 323 321 324 329 329 328 329 325 322 326 326 324 326 325 323 328 327 322 323 325 325 327 326 330 335 330 325 327 326 325 327 328 327 327 326 326 326 325 323 321 321 321 321 322 321 321 322 323 323 324 323 323 324 324 324 324 324 324 325 326 327 328 328 328 328 329 327 325 323 323 323 322 322 322 323 323 323 323 323 324 324 323 320 318 317
326 325 323 324 328 328 327 329 326 323 325 324 323 327 325 322 323 322 321 323 319 321 326 331 336 334 327 326 329 327 325 327 327 326 323 321 320 320 319 317 316 315 315 316 316 316 316 317 318 320 322 322 322 323 323 323 324 324 324 324 325 325 326 326 326 327 327 326 323 322 322 322 322 322 323 322 322 321 322 323 323 322 319 317 316 316
328 324 323 326 329 326 324 322 319 318 323 325 326 327 324 322 323 325 330 328 321 323 330 334 333 330 327 328 329 327 327 327 325 322 318 315 314 314 312 311 311 311 311 311 311 312 312 312 312 315 318 321 322 322 322 322 322 322 323 323 324 324 324 324 323 324 324 323 322 321 321 321 321 322 322 322 321 320 320 321 321 319 317 316 315 315
332 325 321 322 321 318 319 318 316 318 321 321 322 323 320 320 325 335 337 328 320 324 330 329 326 327 328 328 328 329 327 324 320 316 313 311 310 310 309 309 309 308 308 309 309 309 308 309 310 312 315 319 321 322 322 322 322 322 322 322 323 322 322 322 322 322 322 322 321 321 321 320 321 321 321 321 321 320 320 320 320 319 318 317 316 315
334 326 319 321 321 318 319 319 317 319 318 314 315 317 317 318 324 333 333 324 321 325 329 327 325 326 327 328 328 325 321 317 313 310 309 309 309 308 308 307 307 307 306 307 307 307 306 308 309 310 312 315 316 316 316 316 317 319 320 321 321 321 321 321 322 321 321 321 320 320 320 320 320 320 320 321 321 319 317 317 319 320 318 317 318 317
327 323 319 322 322 319 319 319 318 319 320 316 312 312 314 318 320 322 322 319 321 327 327 325 325 323 321 322 322 317 313 311 310 308 307 307 307 307 306 306 306 305 305 305 305 305 305 306 307 307 308 309 308 308 309 309 310 312 314 316 318 319 320 320 321 320 320 320 320 320 320 319 319 319 318 318 318 317 316 316 317 319 319 317 318 318
323 320 317 322 324 321 319 319 318 320 322 321 316 311 313 319 320 320 321 321 322 325 324 323 325 321 316 315 315 312 310 308 307 306 306 306 305 305 305 305 304 304 304 304 304 304 304 304 304 304 305 305 304 305 305 304 305 306 308 310 312 314 317 319 319 318 319 319 319 319 319 320 320 319 318 318 318 318 318 318 319 319 319 318 319 319
327 321 316 322 326 321 318 319 320 320 323 324 320 313 312 316 319 318 319 319 321 323 324 324 325 321 314 312 311 309 307 306 306 305 305 305 304 304 304 304 304 304 304 304 304 304 304 303 303 303 303 303 302 303 303 303 303 303 304 305 306 309 313 313 313 313 313 314 317 318 318 319 319 319 319 319 319 319 319 320 320 320 320 320 320 320
324 322 318 322 325 320 317 320 321 321 324 324 317 311 310 312 314 316 317 315 315 319 323 324 322 317 313 311 309 307 305 305 304 305 305 304 304 304 304 304 304 303 303 303 303 303 303 303 302 302 301 301 301 301 301 301 301 301 302 302 302 305 306 306 305 305 305 307 310 312 314 316 317 318 318 318 318 319 319 319 319 319 319 319 319 320
321 323 322 321 323 320 317 318 320 321 323 320 312 309 310 311 312 315 315 312 311 313 315 315 313 311 310 309 307 305 304 303 303 302 303 303 303 303 303 303 303 303 302 302 303 303 302 302 302 301 301 300 300 300 300 300 300 300 300 300 301 301 301 301 301 301 301 302 303 304 306 309 311 311 312 313 314 315 315 314 313 313 314 314 315 316
323 324 322 320 321 320 317 318 322 322 319 314 310 310 311 311 311 312 312 310 309 309 309 308 307 306 305 304 302 302 302 301 301 301 301 301 301 301 301 301 302 302 302 302 301 302 302 301 301 301 301 300 300 299 299 299 299 299 299 299 299 300 299 299 299 299 299 300 300 301 302 303 304 305 305 307 308 309 308 307 307 307 307 308 308 309
323 323 321 318 317 317 319 320 320 319 315 312 312 310 309 310 311 312 314 311 308 307 307 306 305 304 302 302 302 302 302 301 301 301 301 300 300 300 301 301 301 301 301 301 301 300 301 301 301 301 300 300 299 299 299 299 299 299 299 299 299 299 299 299 299 299 299 299 299 299 300 300 301 301 302 303 304 304 303 304 304 304 304 305 305 305
320 321 321 319 315 316 319 318 316 316 314 313 312 309 308 309 309 311 315 312 307 306 306 305 305 304 303 303 302 302 302 302 301 301 300 300 300 300 300 300 301 301 300 300 300 300 300 300 300 300 300 299 299 299 299 298 298 298 298 298 298 298 298 298 298 298 298 298 298 298 299 299 299 300 300 300 300 300 300 301 301 301 302 303 304 304
315 318 321 320 316 315 319 318 317 318 317 313 310 308 306 307 307 307 312 313 308 305 305 304 304 304 304 304 304 305 306 305 303 301 299 299 300 300 300 300 300 300 300 299 299 299 299 299 300 300 300 299 299 299 299 299 298 298 298 298 298 298 298 298 298 298 298 298 298 298 298 298 298 298 298 298 299 298 298 299 299 299 299 300 301 302
313 315 321 322 317 316 319 319 318 318 315 310 308 306 305 306 305 306 313 316 310 305 304 304 303 303 304 305 305 307 309 308 304 301 298 297 298 299 300 300 300 300 300 299 299 299 299 299 299 299 299 299 298 298 299 299 299 298 297 297 297 298 298 298 298 298 298 298 297 297 297 298 298 298 298 297 298 298 298 298 298 298 298 298 298 299
315 315 318 319 315 313 315 315 314 313 312 308 306 304 304 303 304 310 318 317 308 304 305 304 303 304 305 305 307 309 310 308 304 300 297 296 296 298 299 299 300 300 300 299 299 299 299 298 298 298 298 298 298 298 298 299 299 298 297 297 297 297 297 297 298 298 297 297 297 297 297 297 297 297 297 297 297 297 297 297 297 297 297 297 298 298
314 314 314 314 313 312 312 313 313 311 309 306 304 303 302 304 309 316 317 311 305 304 305 304 304 305 305 305 307 308 306 304 301 298 296 296 297 298 299 299 300 300 299 299 299 299 298 298 298 298 298 298 298 298 298 298 298 297 297 297 297 297 297 297 297 297 297 297 297 297 297 297 297 297 297 297 297 297 297 296 297 297 297 297 297 297
312 312 312 311 310 311 311 312 312 311 307 303 302 302 304 309 316 314 308 305 304 305 305 304 305 305 304 304 304 303 302 300 298 297 296 296 297 299 299 299 299 299 299 299 299 299 298 298 298 297 297 298 298 298 298 298 297 296 296 296 296 296 296 296 297 297 297 297 297 297 296 296 296 296 296 296 296 296 296 296 296 296 296 296 296 296
307 310 312 309 308 309 311 311 312 312 307 302 303 305 306 309 311 307 303 304 306 305 304 305 304 303 303 302 302 301 301 299 298 298 298 298 298 299 299 300 299 299 299 299 298 298 298 297 297 297 297 297 297 297 298 297 297 296 296 295 295 295 295 295 296 296 296 296 296 296 296 296 296 295 295 295 295 295 295 295 295 295 295 295 295 295
305 308 311 308 305 308 312 311 309 308 305 302 303 305 305 304 304 303 303 304 306 305 305 305 303 302 302 302 301 301 300 300 299 299 298 299 299 298 298 299 298 298 298 298 298 298 298 298 297 297 297 297 297 297 297 297 296 296 295 295 295 295 295 295 295 295 295 295 295 294 294 294 294 295 294 295 294 294 294 294 294 294 294 294 294 294
305 306 307 306 303 305 308 307 305 305 304 303 302 302 302 301 301 302 302 302 303 304 304 304 303 302 302 302 300 299 299 299 299 298 298 299 298 297 297 297 297 297 297 297 298 298 298 297 297 297 297 297 296 297 296 296 296 295 295 295 294 295 294 295 295 295 295 295 295 295 294 294 294 295 294 294 294 294 293 293 293 293 293 293 293 293
305 304 305 306 304 303 305 305 304 304 303 302 302 301 301 301 300 300 300 300 300 301 301 302 303 302 301 301 299 298 298 298 299 298 299 298 297 296 296 296 296 297 297 297 297 298 298 297 297 297 297 296 296 296 296 296 296 295 295 295 295 295 295 295 295 295 295 295 295 295 295 295 295 294 294 294 294 293 293 293 293 293 293 293 293 293
305 305 306 307 305 304 306 306 303 303 302 302 302 301 301 301 300 300 301 300 300 300 300 300 301 301 300 299 299 298 298 298 298 298 298 298 296 295 295 295 296 296 297 297 297 297 297 297 297 296 296 296 296 296 296 295 295 295 295 295 295 295 295 295 295 295 295 295 295 295 295 295 294 294 294 294 294 293 293 293 293 293 293 293 292 292
304 306 307 306 304 304 305 304 303 303 302 302 303 302 301 302 301 300 301 301 301 302 301 300 300 301 300 299 299 300 299 298 298 298 297 297 296 294 294 295 296 297 297 297 297 297 297 297 296 296 296 296 296 296 296 295 295 295 295 295 295 295 295 295 295 295 295 295 295 295 295 295 294 294 294 294 294 294 294 294 294 294 294 294 293 293
304 306 305 304 305 304 303 302 303 304 303 302 302 302 302 301 301 301 301 300 300 301 301 301 300 300 300 299 299 301 301 299 297 297 296 295 294 294 295 296 296 297 297 297 297 298 297 297 296 296 296 296 296 296 296 296 295 295 295 295 295 295 295 295 295 295 295 294 294 294 294 294 294 295 294 294 294 294 295 295 295 295 295 295 294 294
307 307 304 305 307 307 307 306 304 304 305 303 301 302 302 302 300 301 300 300 300 300 300 301 299 298 298 298 298 299 300 298 295 294 294 294 294 294 295 296 297 297 297 297 297 297 297 297 296 296 296 296 296 296 296 295 295 295 295 295 295 295 295 295 295 295 295 294 294 294 294 295 295 295 295 294 294 295 295 295 295 295 295 295 295 294
306 306 305 308 308 305 307 307 304 303 305 302 300 302 303 301 301 301 300 300 299 298 298 299 299 298 297 296 296 296 296 295 294 293 292 292 294 295 296 297 297 297 297 297 297 297 297 296 296 296 296 296 296 296 296 296 296 295 295 295 295 295 295 295 295 295 294 294 294 294 295 295 295 295 295 295 295 295 296 296 296 296 295 295 295 295
Wind_Speed
4 3 1 4 5 5 7 7 7 5 5 5 2 2 4 5 7 3 2 6 3 1 7 7 6 7 8 10 8 6 7 9 10 9 9 10 8 10 12 8 7 8 7 10 13 15 17 17 17 15 15 15 14 17 21 22 22 22 23 24 25 25 26 25 24 23 22 21 20 19 17 15 14 12 11 10 9 8 7 7 6 6 7 7 7 8
4 5 6 7 8 7 6 6 6 4 3 2 2 3 4 5 7 4 3 7 3 3 6 4 3 8 9 10 9 5 7 10 12 12 12 14 10 11 14 8 9 8 7 10 11 13 17 18 17 16 16 16 15 17 22 24 25 26 26 26 26 26 26 25 24 23 22 21 20 19 18 16 14 13 12 11 10 8 7 6 6 7 7 7 7 7
1 3 8 7 8 6 4 5 6 4 3 2 2 1 4 4 5 6 3 3 0 3 4 5 5 9 11 11 9 6 8 10 13 15 15 16 13 13 14 10 11 10 8 11 10 11 15 16 18 18 16 16 17 20 24 26 27 27 28 28 27 27 26 25 24 23 22 20 19 18 16 15 14 13 11 10 9 8 6 6 6 7 7 6 7 7
2 5 7 6 7 7 3 4 7 4 1 2 3 2 4 2 1 4 4 4 3 2 5 6 6 8 9 8 7 6 8 8 8 13 14 15 15 15 14 11 12 12 11 12 11 9 11 16 20 19 18 20 23 24 24 26 27 26 27 29 29 28 27 26 24 23 21 19 17 14 13 13 13 12 12 10 8 7 7 7 7 7 6 6 6 6
6 6 3 6 6 7 5 3 6 3 2 3 5 5 5 3 3 7 4 5 6 4 3 2 5 6 5 5 6 6 5 7 5 8 11 10 8 10 10 10 12 14 13 13 13 12 11 16 20 20 25 32 33 31 31 30 27 25 26 28 29 29 28 26 25 23 21 19 18 15 14 14 12 11 12 11 10 9 8 8 8 7 6 6 6 6
8 5 5 6 3 5 5 4 4 6 3 4 5 9 9 7 8 10 4 5 5 5 3 2 4 5 5 4 6 6 6 7 4 5 9 7 6 9 10 10 12 13 13 13 15 15 12 15 19 22 30 33 28 27 30 29 26 24 26 27 28 28 28 26 25 23 22 20 20 19 19 17 15 14 14 13 13 12 10 9 9 8 7 7 6 6
4 3 6 6 5 5 4 4 5 7 4 4 6 10 11 9 9 8 1 3 0 3 3 4 3 4 6 4 6 6 6 7 6 1 5 7 8 10 11 11 12 13 13 13 15 14 13 15 18 21 29 30 21 16 17 21 23 24 26 27 28 28 28 27 24 24 23 22 21 21 20 20 18 17 16 15 14 12 10 10 10 9 8 7 7 7
3 4 5 5 5 5 4 4 6 8 7 4 5 8 9 8 8 7 4 4 4 3 4 4 4 3 5 5 6 5 5 6 7 5 2 5 8 11 12 13 15 15 15 15 15 15 14 15 19 23 30 29 21 14 15 19 21 24 27 27 28 28 27 26 24 24 24 23 23 21 19 19 19 18 17 15 14 12 11 11 11 10 9 9 8 9
4 6 8 7 5 4 5 4 7 9 5 6 5 7 8 7 7 6 6 5 2 1 5 5 2 2 5 6 5 4 4 6 6 6 5 4 8 10 12 14 16 17 17 16 16 16 14 17 23 28 27 22 16 13 16 20 21 24 26 25 24 25 25 24 23 23 24 23 22 21 19 19 18 17 16 15 14 13 12 13 12 11 11 11 11 11
3 6 8 8 6 5 7 6 9 11 6 5 5 6 3 3 3 3 5 3 1 1 5 6 2 1 4 5 5 4 4 5 6 6 6 4 8 10 11 13 15 14 14 14 14 14 15 20 26 25 18 13 12 12 15 20 22 23 23 22 20 20 22 23 23 23 24 22 21 20 19 19 19 17 16 16 16 15 14 14 14 13 12 12 12 11
2 1 4 5 5 6 6 5 8 13 9 2 4 4 4 4 3 3 2 3 3 2 7 7 5 4 3 5 3 2 3 5 6 6 6 6 9 10 11 11 13 13 12 12 12 10 11 13 14 13 8 5 9 11 13 18 20 20 21 21 20 19 19 22 23 24 23 21 20 19 19 19 19 18 18 18 18 16 16 16 15 14 13 12 11 10
4 1 1 3 5 5 4 3 4 7 5 2 3 3 3 2 3 4 4 3 3 5 7 5 5 6 3 5 3 4 6 7 7 7 7 6 8 8 8 7 9 11 9 7 6 3 3 4 2 1 2 3 7 8 10 13 15 18 20 22 23 23 22 23 24 25 24 21 19 18 18 18 18 18 19 19 19 18 18 17 15 15 14 12 11 11
3 3 4 4 3 5 5 2 3 2 1 4 3 4 3 1 2 2 3 0 2 6 5 2 3 4 4 5 4 6 7 6 5 6 6 6 6 5 4 4 3 4 4 5 6 6 4 4 4 2 3 4 5 5 7 10 12 15 19 23 24 24 24 25 24 25 24 21 18 18 18 17 17 18 19 19 19 19 18 16 16 16 14 13 13 12
3 5 3 1 3 4 7 4 2 1 3 5 5 5 4 2 2 1 3 1 3 5 3 1 2 2 4 3 3 7 6 5 4 2 3 3 3 5 5 6 7 8 9 9 7 4 3 1 3 5 5 5 5 4 6 9 11 13 17 21 22 21 22 24 24 24 23 20 17 17 17 16 17 18 18 18 19 18 17 16 16 15 14 14 13 12
2 4 3 5 2 2 7 8 6 4 4 5 4 5 5 4 4 3 4 3 4 4 3 3 0 2 2 2 3 6 4 3 4 4 4 4 5 8 8 8 8 8 10 8 5 3 3 1 6 7 7 7 6 5 5 9 11 11 14 17 16 13 13 16 18 19 19 17 16 16 16 16 17 18 18 17 17 16 16 16 14 14 13 12 11 10
3 4 7 4 1 4 5 5 4 6 2 3 3 4 2 5 5 2 3 5 3 1 2 3 1 2 3 4 4 3 2 3 6 6 7 7 6 8 9 8 6 5 5 6 5 3 1 2 8 9 8 8 8 7 6 9 11 11 12 11 10 13 11 10 11 13 13 13 14 15 16 16 18 18 17 16 15 14 15 15 13 12 11 9 8 9
2 4 7 4 2 4 6 5 4 5 3 1 3 3 4 4 7 4 2 0 3 1 3 1 2 4 3 3 4 1 2 5 7 7 8 8 7 7 7 8 8 6 4 3 3 4 3 4 7 8 9 9 9 8 7 8 10 11 12 12 18 20 17 14 12 13 15 15 13 14 16 17 19 19 17 16 16 15 15 14 12 10 9 8 8 9
3 3 6 2 4 6 4 4 2 2 5 4 3 5 2 2 4 4 2 3 4 2 4 1 1 4 1 1 3 3 3 5 7 7 8 9 9 8 5 3 8 7 5 3 1 3 5 6 7 8 9 10 10 9 8 8 8 10 14 20 23 19 16 13 13 16 19 18 16 16 17 18 19 18 16 16 16 17 16 15 12 10 9 9 8 9
3 1 6 2 4 7 2 3 2 4 1 3 4 4 3 2 1 1 2 1 1 2 3 2 2 2 2 3 2 3 3 5 7 8 9 9 8 6 3 2 4 6 6 5 3 3 5 6 8 9 10 11 12 11 9 9 11 16 21 23 20 17 15 14 15 17 18 18 18 19 19 20 20 18 17 17 17 17 17 15 13 12 10 9 9 8
2 1 5 4 4 4 5 3 1 3 3 2 3 2 2 2 4 2 2 3 3 3 2 2 2 2 4 4 1 1 3 5 7 8 9 8 6 6 4 3 4 5 5 4 3 4 5 6 8 10 10 11 13 13 12 14 17 20 19 16 15 17 18 18 19 18 18 19 18 19 20 20 20 18 18 17 17 16 15 14 13 13 12 10 9 8
3 2 4 5 4 2 2 2 2 4 2 2 2 2 1 1 2 2 1 2 3 4 2 1 1 5 5 2 0 2 2 4 7 8 8 7 6 6 6 6 6 6 6 3 3 4 6 7 9 10 10 12 14 14 14 17 19 18 16 15 16 18 18 20 21 19 19 18 16 17 19 19 18 17 16 16 15 15 14 12 12 12 12 11 9 8
2 2 3 2 4 2 3 5 3 4 4 4 4 4 3 3 4 3 1 1 2 3 3 4 2 6 4 1 1 1 2 4 7 8 7 7 8 7 7 7 6 7 6 4 2 3 5 7 9 11 11 12 13 14 16 18 19 17 18 18 17 17 16 18 20 19 18 16 15 16 18 18 17 16 16 15 15 14 13 12 11 11 11 11 10 9
3 4 2 1 2 3 6 7 3 1 2 3 2 3 3 3 4 5 3 3 1 2 2 3 1 5 4 0 1 1 3 3 5 8 7 6 7 7 8 6 5 6 5 5 3 1 3 7 10 12 13 13 13 15 16 18 18 18 20 21 19 18 18 18 19 18 17 16 16 17 18 19 19 17 16 16 15 14 12 11 11 10 10 10 9 8
2 3 2 2 4 4 5 6 4 3 4 3 2 2 2 1 3 5 5 4 3 3 2 2 0 4 4 1 1 3 3 3 5 7 7 7 5 6 7 6 5 4 4 5 4 2 3 6 8 9 11 13 14 15 16 16 17 17 19 21 21 20 19 19 18 17 16 16 17 19 20 20 19 18 17 17 15 14 12 11 11 10 9 8 7 7
0 1 2 1 3 4 5 5 5 5 4 2 2 4 4 2 4 4 2 3 2 3 4 4 2 5 3 1 2 4 5 6 6 6 5 6 6 5 5 6 6 5 5 6 6 6 6 6 6 8 11 14 15 15 15 15 16 16 18 20 21 22 21 20 19 18 18 17 18 20 21 20 19 17 17 17 15 14 13 13 12 11 8 5 6 7
2 1 2 3 3 2 2 2 3 3 2 1 2 5 5 4 3 3 3 4 1 2 3 4 4 4 1 1 2 5 6 6 6 7 7 6 5 5 6 6 6 6 6 6 7 7 6 6 7 10 12 13 15 15 16 17 17 17 17 17 18 20 20 18 18 18 18 17 16 15 16 17 17 16 16 15 14 13 14 14 13 10 7 5 6 7
3 2 2 4 4 4 5 5 5 2 1 2 4 6 6 5 3 2 4 2 3 2 2 2 4 2 2 2 2 5 6 6 6 8 9 8 7 7 7 6 6 7 6 5 6 5 5 5 6 9 12 13 15 17 18 17 17 16 16 15 15 16 15 14 15 16 16 16 16 15 14 15 15 16 17 17 17 15 13 12 11 9 7 6 6 5
4 3 2 5 4 1 3 5 4 1 3 1 3 6 7 8 6 4 4 3 5 5 1 5 3 5 5 4 4 5 6 6 7 9 8 7 7 7 7 8 9 8 6 5 6 5 6 7 5 7 11 14 16 18 19 18 18 17 17 14 12 11 10 10 13 15 14 14 15 15 15 16 16 16 17 18 19 17 13 10 9 7 6 5 5 5
5 2 1 4 2 2 3 3 1 5 4 3 5 6 8 9 7 5 2 2 4 5 3 4 5 5 3 2 4 6 7 8 9 9 8 8 9 8 8 10 10 8 7 7 7 7 7 7 6 7 11 16 19 21 21 21 20 20 19 16 13 12 11 10 11 13 13 13 14 14 14 15 15 14 15 16 18 17 12 9 7 5 5 4 5 7
4 1 1 3 3 4 5 4 3 5 4 3 6 7 8 8 7 6 2 1 2 4 5 6 7 5 3 3 5 7 9 9 9 9 10 10 10 9 10 12 11 9 9 9 10 9 8 7 8 9 13 18 21 22 22 22 22 23 23 20 19 18 17 16 15 16 17 17 17 15 14 13 13 12 12 13 15 15 12 9 6 7 8 6 7 9
3 2 0 3 3 3 5 4 4 4 5 5 7 9 10 8 7 7 4 2 3 4 8 9 7 4 4 4 6 8 8 10 11 11 11 10 9 10 12 13 10 9 9 9 10 10 9 8 10 12 15 18 21 23 23 22 24 26 27 26 25 24 23 22 22 21 20 20 19 19 19 18 16 16 15 14 15 14 12 11 10 9 8 7 5 6
3 2 1 3 3 1 4 4 5 4 4 6 7 10 10 6 4 3 3 3 3 2 8 8 4 2 1 3 8 9 9 12 12 10 10 9 8 9 11 11 10 7 7 8 10 9 7 8 10 12 16 19 22 25 24 25 27 28 28 28 27 27 28 27 27 27 25 23 21 21 21 20 19 19 18 17 17 16 16 16 15 13 11 9 7 5
2 3 2 2 2 1 4 3 4 4 3 3 4 6 6 4 2 2 2 5 6 1 4 4 3 3 3 5 8 9 10 12 11 9 8 8 8 9 9 9 9 8 6 6 7 7 6 8 12 15 19 22 25 25 25 28 29 27 27 28 29 32 33 31 31 30 28 26 25 23 22 21 20 20 19 18 17 16 16 15 14 12 11 9 7 6
2 4 2 2 2 1 3 3 2 2 1 1 3 4 4 4 2 3 3 5 7 3 3 3 4 6 5 6 8 8 9 10 9 9 8 7 7 7 8 8 7 7 6 6 7 6 6 11 15 18 22 24 25 25 26 29 29 27 28 31 33 35 36 34 34 32 30 29 28 27 26 25 24 23 21 20 18 17 16 15 14 13 11 9 7 7
3 4 2 2 2 1 1 2 2 1 0 1 1 3 4 3 2 5 5 7 7 6 7 8 8 8 8 8 8 9 11 11 10 11 11 8 6 6 8 8 7 6 6 7 9 9 10 14 18 20 23 24 24 25 26 27 29 29 31 33 35 36 35 35 35 33 31 31 29 28 28 27 27 25 23 22 20 19 19 17 16 15 13 12 11 10
5 4 2 2 2 1 1 2 1 1 1 1 1 4 5 3 3 3 3 6 7 4 6 9 9 9 10 10 8 8 10 11 11 11 10 8 7 6 7 7 5 5 6 8 10 10 12 17 20 21 24 26 27 28 27 25 27 31 32 33 35 35 34 35 35 32 31 31 28 27 26 25 25 24 23 21 20 20 20 18 16 15 13 12 13 13
4 4 2 2 1 2 2 1 1 1 2 2 2 4 4 3 4 3 2 3 4 3 4 9 10 10 10 9 8 7 8 10 10 8 8 8 7 7 8 7 6 6 10 13 14 13 15 19 21 23 27 30 31 31 29 26 25 29 32 32 32 33 34 34 32 30 29 28 26 25 24 23 22 22 21 20 20 20 19 17 16 15 12 10 11 11
5 3 3 3 1 2 3 2 2 2 1 2 3 4 4 3 5 3 1 2 2 3 5 8 11 10 9 9 7 6 6 8 7 4 6 8 7 6 8 9 9 10 13 16 17 17 18 19 21 23 27 30 30 29 30 28 26 28 30 29 29 31 32 31 28 27 27 25 23 23 22 21 21 20 20 20 19 19 18 16 16 15 13 12 11 10
8 4 3 4 2 2 3 3 2 1 0 1 5 8 6 4 4 2 1 2 1 4 4 7 10 9 9 9 6 4 4 5 3 1 2 5 6 7 8 9 10 11 14 17 18 18 17 17 20 23 26 28 27 26 27 29 28 28 27 25 26 29 29 27 25 24 23 22 21 21 20 20 20 20 19 19 18 17 16 15 15 14 12 12 12 11
8 5 4 4 3 3 3 2 2 1 0 2 6 10 8 5 3 2 2 2 1 4 4 6 9 8 7 6 3 1 2 4 5 4 4 3 4 7 9 9 9 11 14 17 18 17 17 18 20 22 24 24 23 24 26 28 29 27 24 23 25 27 25 23 21 20 19 19 19 19 19 19 19 19 19 18 17 16 15 14 13 13 12 12 12 11
4 4 3 4 3 3 4 2 1 1 1 3 7 11 9 4 1 2 0 2 1 4 4 5 7 6 4 3 2 3 3 6 8 7 6 6 5 6 9 10 10 11 14 15 17 19 20 20 20 21 22 21 22 23 26 28 27 24 22 22 24 23 21 19 17 17 17 17 17 18 17 18 18 18 17 16 15 14 15 15 14 14 13 13 13 13
3 3 3 3 2 2 2 2 1 1 0 5 11 10 5 1 0 1 2 2 1 4 4 4 4 4 4 4 5 7 8 10 11 10 8 7 7 7 9 11 12 12 13 15 18 21 21 20 20 20 20 20 21 23 24 26 26 22 21 22 21 19 17 16 15 16 16 16 16 16 16 15 15 15 15 14 13 13 14 14 14 14 14 14 14 14
2 1 2 2 1 1 2 3 2 0 2 8 11 7 2 2 1 2 2 2 3 4 4 3 3 4 5 7 8 11 12 11 10 9 9 8 7 8 9 10 11 11 12 15 18 19 21 20 20 20 19 19 20 20 21 24 24 22 21 21 17 15 14 14 14 14 15 15 15 14 14 14 13 14 14 13 13 13 14 14 14 14 14 14 15 15
3 2 1 1 1 2 3 2 1 1 3 7 6 2 1 3 3 2 1 2 3 4 3 3 4 4 7 10 10 10 11 10 9 9 8 7 6 7 9 10 11 11 13 16 17 19 22 21 19 19 19 18 18 18 19 20 22 22 21 18 15 14 14 13 14 15 16 16 15 14 14 14 14 14 14 14 14 15 15 16 15 15 15 16 16 16
2 2 3 1 1 2 3 1 1 2 3 4 2 1 2 3 3 3 4 4 3 3 3 4 5 6 7 10 10 9 8 8 8 8 7 6 6 7 9 10 11 13 16 18 19 20 22 21 19 19 19 17 17 17 17 18 20 21 19 17 15 15 15 15 16 17 17 17 16 15 15 14 15 15 15 15 16 16 17 16 16 16 16 16 16 16
0 2 3 2 1 2 2 2 2 2 3 3 3 2 3 4 5 5 7 6 4 4 5 5 6 7 6 7 8 7 6 7 7 7 7 6 6 8 11 12 12 15 18 19 19 20 21 20 19 18 18 16 16 17 17 18 19 20 18 15 15 15 15 15 16 16 16 16 15 15 15 15 15 15 15 15 15 15 15 15 15 15 15 15 15 15
1 2 4 3 2 2 2 3 4 4 3 4 4 5 6 6 6 6 7 6 6 7 8 8 8 8 7 7 8 7 6 6 7 6 5 6 6 8 12 13 13 15 17 18 19 19 19 19 18 16 16 16 15 16 17 17 18 17 15 14 14 13 13 14 14 15 14 14 14 14 14 14 15 14 14 14 14 14 14 14 14 16 16 16 16 16
1 3 3 2 2 2 1 2 4 3 3 4 4 4 5 6 7 7 7 7 9 10 10 10 10 8 6 7 8 7 6 6 6 6 5 5 6 8 11 12 13 15 16 17 18 18 18 18 17 16 17 16 15 15 16 15 14 13 13 13 12 10 11 12 13 13 13 12 12 13 14 14 14 15 15 15 15 15 14 15 15 16 16 16 16 16
2 3 2 1 3 2 1 2 3 4 5 6 6 5 4 5 7 8 8 9 11 11 10 11 11 9 8 8 7 8 7 4 5 7 6 5 6 9 11 13 14 14 15 16 15 16 17 18 18 17 17 16 14 14 14 13 12 11 10 10 10 9 9 10 10 11 12 13 12 12 13 13 14 14 15 14 14 13 13 14 14 15 15 14 14 14
2 2 1 2 4 1 3 3 1 2 1 1 3 5 5 3 6 8 8 8 9 9 9 9 8 8 8 8 9 9 7 4 6 9 8 7 8 9 11 13 14 14 15 15 15 15 16 17 17 17 17 15 14 14 14 13 12 10 9 9 9 9 9 9 9 10 11 12 12 11 11 12 12 13 13 13 13 13 13 13 13 13 13 13 13 12
2 3 2 2 3 2 5 5 3 4 2 3 1 3 5 4 4 6 6 6 6 7 9 9 8 6 5 5 8 10 9 7 8 11 10 8 8 9 9 10 12 13 14 15 15 16 16 15 15 15 15 14 14 14 14 13 12 10 9 8 7 7 7 8 10 10 10 10 10 10 11 12 12 13 13 12 13 14 15 15 14 13 13 13 13 11
Wind_Direction
135 141 179 206 206 186 198 194 179 175 142 142 163 214 231 257 275 252 223 258 215 228 279 255 250 265 270 276 266 221 202 206 202 193 195 196 186 184 192 188 160 160 152 134 141 159 171 180 187 181 170 169 167 174 184 186 188 191 189 185 185 189 191 192 190 186 184 180 179 178 177 181 184 187 186 181 183 183 180 175 175 184 189 198 201 203
107 164 224 219 190 176 186 181 157 143 133 140 196 270 276 245 268 287 243 256 203 166 260 270 304 284 271 270 268 213 188 210 203 191 196 198 193 190 192 173 139 145 135 133 145 164 175 176 175 175 172 170 171 179 188 191 189 190 189 185 183 186 188 191 190 186 184 183 180 177 176 184 188 190 189 180 177 178 178 179 185 189 195 203 194 192
84 211 230 212 179 158 123 124 128 134 158 147 141 231 274 254 286 300 275 280 107 151 262 307 328 287 276 274 269 222 202 220 207 193 194 193 191 193 190 162 140 144 140 150 159 169 173 164 163 173 174 176 188 196 198 195 191 188 186 184 184 185 186 189 190 187 185 184 184 181 177 182 187 190 189 181 174 173 175 180 189 194 197 199 189 186
208 246 226 188 158 145 127 122 122 112 132 161 157 186 261 263 347 291 294 331 324 245 253 291 308 281 284 294 287 253 234 248 229 203 199 194 192 193 185 160 147 150 152 160 166 170 162 158 169 173 169 184 200 203 203 197 192 188 183 181 184 185 185 186 187 187 185 182 181 179 175 178 183 184 185 183 179 177 180 185 189 190 187 186 188 190
224 237 166 129 140 156 183 177 137 156 267 246 203 204 241 243 207 239 280 339 325 308 249 290 333 296 305 323 301 293 284 286 261 211 209 202 183 170 160 152 154 159 163 163 168 176 169 169 176 174 182 197 199 198 202 199 192 187 180 181 185 184 183 186 187 186 182 176 171 164 160 166 171 173 180 184 183 182 182 182 179 172 167 169 178 188
242 226 128 118 144 159 184 219 181 180 225 288 233 211 220 220 226 244 288 13 357 334 298 41 24 300 308 320 291 315 339 326 309 211 203 188 145 145 150 155 161 165 168 168 176 183 177 173 176 183 198 206 202 198 199 192 187 183 177 181 188 185 184 187 189 186 182 176 171 164 159 161 163 168 180 184 179 178 175 169 165 157 153 154 161 172
251 195 151 161 163 150 171 238 224 170 155 281 241 205 209 212 229 247 238 78 19 266 296 49 97 268 307 323 295 316 351 343 345 333 196 177 151 157 161 158 161 166 171 175 183 186 177 174 179 193 209 213 209 203 192 181 181 178 174 183 191 188 187 190 188 184 182 179 175 172 169 170 173 175 179 180 174 171 166 158 154 149 147 151 157 163
182 152 167 169 146 149 177 244 223 156 134 250 230 178 186 200 220 226 160 165 232 259 318 18 123 230 294 289 287 319 8 360 358 356 257 195 168 164 162 162 167 172 175 178 183 186 181 179 187 200 211 212 205 190 181 178 177 176 179 188 192 189 190 190 186 183 183 181 178 176 174 175 182 182 177 175 172 169 162 154 149 147 147 148 153 155
162 167 185 169 141 173 200 201 181 153 160 244 209 164 175 184 197 193 162 192 246 346 310 306 138 204 272 273 302 359 31 354 340 334 306 232 177 169 165 168 174 178 180 180 182 183 181 184 195 204 209 209 196 180 177 177 176 181 187 191 191 188 189 188 185 182 182 183 179 178 176 176 182 182 177 174 173 171 163 153 149 147 146 145 145 146
186 192 182 157 153 203 215 194 164 165 202 229 158 144 129 116 136 139 147 169 79 33 257 252 193 196 272 289 325 14 31 336 314 315 301 230 183 176 173 174 178 180 183 183 182 184 184 190 198 204 206 198 186 180 174 176 182 184 185 189 189 187 188 189 187 183 181 181 180 180 178 177 177 177 176 174 173 173 165 156 153 152 150 147 145 143
273 224 149 150 178 199 203 192 176 184 199 162 109 102 66 49 49 73 100 100 88 273 253 230 194 183 264 289 295 311 311 290 284 295 280 215 188 184 181 180 180 181 183 183 182 182 181 185 194 200 199 181 182 183 173 175 182 182 182 186 188 189 193 192 188 185 182 180 180 181 179 178 177 174 172 171 171 172 168 162 160 160 158 153 150 148
326 1 173 222 205 176 160 193 217 211 200 119 80 88 83 333 20 41 357 50 110 256 259 230 181 160 212 258 260 274 278 272 262 264 258 218 196 191 181 177 181 180 178 175 163 114 81 81 61 183 156 152 177 185 177 173 175 178 184 190 191 192 196 197 191 186 184 180 180 183 181 180 179 174 172 171 171 172 171 170 169 168 166 162 160 160
303 231 245 276 237 178 160 214 299 332 123 129 119 100 102 309 20 30 305 53 195 251 255 226 152 155 225 238 270 303 294 282 258 239 255 243 203 175 148 131 134 135 103 81 78 58 26 34 41 63 123 141 160 173 180 177 174 178 187 196 195 191 195 197 191 186 183 179 180 183 182 181 179 176 174 173 171 171 173 174 172 171 172 173 173 171
296 298 281 258 276 203 162 182 259 270 152 150 152 144 143 133 82 266 270 259 262 265 273 297 152 204 274 247 278 308 306 300 292 264 306 290 164 119 93 94 88 81 76 72 89 123 235 229 106 113 125 131 134 140 171 182 185 183 187 196 196 193 196 195 190 186 182 179 181 183 184 185 182 179 177 174 171 171 173 173 170 172 176 179 179 176
198 315 255 190 248 190 171 195 200 164 151 167 165 140 146 158 150 203 225 211 255 272 305 325 177 185 252 243 266 297 306 341 7 29 31 26 86 95 79 79 89 96 103 112 129 162 244 198 111 111 118 122 125 128 150 174 186 187 189 197 193 182 186 184 179 178 176 178 183 186 190 193 189 185 181 177 175 173 172 171 168 170 174 177 177 176
152 255 254 240 211 153 188 220 157 115 127 204 145 108 159 187 153 154 196 177 184 253 314 316 270 218 233 263 279 297 326 57 58 44 58 62 69 90 90 84 72 54 91 127 134 134 232 114 99 106 118 122 125 128 138 163 178 181 184 180 137 112 116 124 139 155 164 172 180 191 197 198 195 192 187 184 181 177 175 172 168 167 169 170 170 175
121 262 275 308 301 201 200 212 166 152 183 179 132 167 216 177 128 120 211 90 83 144 279 310 281 299 320 302 301 352 31 69 72 52 59 62 53 71 97 112 97 59 44 70 111 141 148 102 95 107 120 123 128 130 127 146 167 176 170 136 106 100 103 109 132 162 173 176 184 200 204 201 198 196 193 191 187 181 178 174 171 170 172 171 169 172
143 265 284 308 280 263 205 176 189 166 148 127 177 205 190 96 92 110 165 7 45 202 272 330 250 297 343 284 318 45 62 60 70 68 64 57 47 42 26 75 102 109 119 103 114 138 111 94 101 110 115 120 129 132 123 124 139 146 134 117 110 109 110 120 151 169 175 183 194 204 204 200 198 196 195 194 190 185 181 177 178 183 183 179 174 174
132 275 293 270 252 293 349 106 343 334 69 138 178 173 110 122 178 90 146 146 114 216 286 319 261 264 205 220 297 50 47 46 65 76 80 76 76 73 21 8 85 113 120 113 124 120 98 98 104 109 116 121 126 127 121 112 104 107 108 106 114 131 137 147 162 167 172 184 195 198 195 192 192 192 193 191 188 185 181 179 184 191 192 186 182 181
103 145 284 279 258 302 3 40 290 300 339 50 120 118 53 137 167 163 151 157 163 182 257 310 312 263 228 220 208 351 9 55 76 76 82 90 93 97 100 89 83 89 94 104 120 112 112 114 108 113 121 124 125 124 120 112 104 104 107 110 128 144 147 156 163 166 174 182 190 191 186 186 189 190 190 188 186 185 181 182 191 195 194 191 191 193
64 117 244 284 313 333 354 322 223 201 188 95 142 190 292 84 137 155 95 99 129 149 178 191 301 270 249 220 262 302 20 88 95 82 77 80 80 85 89 86 89 91 87 94 123 126 132 129 123 124 120 115 119 120 120 118 114 114 120 130 143 146 148 159 165 168 174 180 188 189 184 186 190 190 190 189 188 186 182 186 197 198 194 192 194 198
117 138 198 291 353 1 254 255 224 182 177 169 175 187 180 141 125 136 255 298 101 126 165 158 201 270 261 155 289 274 133 121 108 101 90 77 76 80 77 75 88 99 97 96 114 138 140 134 132 128 120 116 115 113 116 121 124 130 132 134 144 149 150 160 166 170 175 179 187 191 189 191 192 193 194 191 189 187 185 192 202 200 196 193 194 198
140 111 118 247 272 250 257 260 247 162 137 138 158 157 144 129 120 136 199 235 112 107 142 123 138 274 271 208 331 90 121 119 109 114 115 99 89 88 85 77 76 91 106 114 106 99 132 134 135 132 128 123 116 113 120 128 132 136 136 138 146 150 152 158 162 166 171 177 184 189 190 192 193 194 194 190 188 189 189 194 198 197 192 189 193 197
88 84 70 296 298 305 298 298 319 8 54 55 2 43 90 148 136 142 174 176 139 152 151 100 169 267 273 324 64 106 95 79 96 111 121 121 114 105 103 97 80 71 88 104 99 66 77 111 123 125 121 113 109 116 127 133 133 132 135 142 147 149 153 158 161 162 163 171 183 188 188 189 190 190 188 188 190 193 193 189 182 178 179 185 196 194
240 106 106 77 349 342 339 337 340 351 27 58 332 343 351 27 92 108 127 95 111 194 152 130 212 258 283 15 107 121 84 67 79 86 101 114 115 113 104 85 69 50 39 60 72 59 50 65 78 83 93 101 108 117 121 125 130 131 136 143 146 149 154 160 168 173 173 178 185 184 181 181 182 183 184 187 189 187 182 175 166 161 163 180 191 183
141 130 129 140 164 191 214 266 262 284 329 349 338 351 352 6 72 138 133 91 163 229 113 133 210 251 284 62 138 130 95 80 83 69 63 71 73 84 91 85 79 63 40 41 58 61 54 55 65 73 84 98 104 106 110 117 123 126 134 142 146 149 152 155 163 172 177 178 174 165 164 168 172 177 179 176 172 167 165 162 157 152 156 175 182 178
107 74 92 121 138 178 197 227 238 236 18 347 335 348 350 335 334 95 100 106 190 161 68 217 216 179 154 168 149 126 105 94 87 68 62 57 44 49 68 72 72 67 52 45 55 66 68 64 69 81 88 96 98 100 104 109 110 113 123 133 139 145 146 140 145 156 166 168 161 154 154 154 155 162 164 157 149 144 144 148 147 140 148 170 182 185
100 60 70 99 93 201 223 254 263 87 80 53 352 352 350 343 353 71 108 162 151 119 292 251 190 148 169 167 128 118 103 85 74 64 63 64 54 52 66 74 71 63 51 46 47 54 64 58 46 64 86 94 94 94 96 98 100 104 111 120 126 130 129 125 134 142 146 148 145 144 143 137 136 144 149 151 148 137 123 123 127 127 143 177 202 205
108 88 146 108 64 1 358 331 15 98 104 79 46 23 5 1 19 68 136 210 135 132 205 205 137 131 152 117 89 94 90 83 80 76 72 70 62 49 50 60 59 49 42 38 32 34 53 60 44 41 68 83 86 86 86 86 89 92 97 104 107 103 104 114 125 128 123 117 118 122 128 132 137 143 145 151 154 148 137 126 121 136 157 180 227 234
105 90 147 119 79 23 10 356 48 98 115 72 38 28 19 15 28 47 41 333 78 125 143 122 102 78 17 20 68 84 89 87 82 75 66 64 66 62 57 52 40 26 32 40 35 28 28 48 59 56 66 76 79 81 81 79 81 84 86 89 91 91 97 107 110 108 105 102 104 112 120 125 134 141 141 146 156 166 174 172 179 197 186 188 233 251
81 114 220 93 86 6 345 358 35 76 111 89 39 20 17 18 23 26 28 27 29 88 104 99 95 60 355 11 65 76 83 81 73 69 65 63 68 77 78 70 51 27 25 42 53 44 28 36 51 56 63 71 75 79 80 78 79 82 83 84 85 87 94 99 98 96 96 99 103 108 112 115 121 127 128 133 145 158 164 161 163 173 169 170 203 230
59 111 38 70 98 321 323 345 359 17 74 74 36 13 4 7 20 355 342 352 334 130 116 108 118 122 2 64 68 60 65 72 68 67 73 74 71 74 79 82 78 55 28 39 57 53 44 51 55 56 61 66 73 77 80 82 80 80 81 83 84 88 91 91 89 87 88 92 100 104 106 110 113 115 118 122 128 133 133 133 133 132 133 136 138 138
83 116 103 90 122 279 315 334 352 14 40 23 0 356 337 310 302 311 331 356 341 326 129 129 145 136 128 103 85 66 60 66 66 62 68 74 70 64 59 61 66 58 32 34 52 46 41 58 62 64 64 66 71 76 81 85 84 81 83 84 85 88 88 84 82 82 81 84 91 95 98 103 106 106 108 112 117 121 124 125 121 116 117 118 116 117
85 101 97 92 114 248 303 334 22 68 97 270 302 321 300 279 337 43 43 11 360 28 86 71 72 79 75 83 94 92 79 72 69 60 53 56 62 62 54 44 45 45 29 26 34 22 28 57 64 66 67 67 71 75 80 84 85 85 86 86 85 85 84 82 79 79 77 78 81 85 91 96 98 98 99 102 106 110 110 108 102 98 98 98 97 99
98 87 79 68 88 134 301 19 92 160 204 205 254 342 332 308 36 70 70 37 29 63 85 77 73 77 78 82 91 98 95 86 75 61 50 45 46 59 63 51 38 40 37 35 34 20 28 55 65 67 69 70 72 74 76 80 83 84 82 82 83 81 80 79 77 74 74 75 76 79 84 87 90 91 93 95 98 98 94 91 89 86 84 83 81 78
120 110 103 79 76 114 43 47 124 188 333 331 3 15 6 351 2 25 57 43 30 42 87 96 99 97 98 103 103 105 105 94 76 57 44 41 38 46 62 54 29 29 40 44 43 32 36 52 63 69 73 75 75 73 71 72 78 81 79 78 79 78 76 76 74 71 71 71 71 73 76 79 81 83 83 86 88 86 82 79 78 76 73 74 74 71
110 119 110 73 81 139 116 62 42 54 18 16 22 15 7 344 336 334 333 16 24 46 109 118 120 116 114 114 113 120 114 93 75 48 27 33 35 39 54 51 30 35 49 49 47 48 56 62 66 71 76 78 78 77 75 72 73 77 78 76 76 75 74 73 72 71 70 68 68 68 69 71 73 73 73 73 73 71 70 68 67 65 60 59 61 58
67 108 131 115 93 99 101 88 45 28 24 21 343 331 344 324 298 290 297 341 36 95 126 132 128 128 130 129 138 153 118 82 72 38 12 18 20 32 53 53 44 49 57 57 53 53 58 65 71 76 79 80 79 80 82 80 75 75 75 74 74 75 74 73 73 72 71 69 68 67 67 67 68 68 66 64 62 60 59 57 54 51 47 45 46 45
45 52 92 93 65 58 90 106 86 73 192 344 319 314 329 323 279 250 66 333 151 140 149 141 134 139 145 144 156 169 119 95 113 150 32 23 24 42 59 56 48 49 56 60 59 56 57 68 78 81 81 80 79 81 85 84 79 74 73 73 74 74 73 73 73 71 71 72 71 70 69 67 67 66 65 62 60 56 53 50 46 41 36 35 34 31
34 25 40 60 55 51 73 86 69 58 338 317 313 312 319 310 261 143 71 313 200 152 157 148 142 147 149 144 136 76 93 134 149 148 129 103 67 66 73 67 51 48 54 61 67 70 72 76 80 81 81 82 84 84 85 84 79 75 74 73 73 74 73 73 71 69 69 69 69 68 67 65 64 64 62 60 57 54 51 47 42 35 30 26 22 17
26 22 43 74 69 42 60 84 64 24 307 319 316 311 310 300 257 106 36 287 185 138 142 140 141 140 128 117 96 55 66 105 119 128 133 125 109 95 92 86 71 59 59 69 80 84 82 80 80 81 84 87 89 88 85 83 81 79 77 75 74 75 77 76 74 73 71 68 66 65 63 61 60 59 58 55 50 47 44 39 33 28 24 20 15 10
21 21 21 51 56 26 64 93 42 259 73 345 326 312 305 311 348 342 317 311 104 119 124 121 120 108 82 76 96 105 104 108 119 134 142 135 127 121 111 99 86 75 75 86 94 95 92 87 83 83 85 88 90 89 85 82 83 81 77 75 75 76 77 77 77 77 76 73 71 67 63 61 58 55 52 47 40 36 34 30 25 21 18 14 10 7
27 49 5 357 14 26 47 52 32 202 354 347 337 328 359 30 296 277 328 23 74 94 102 89 66 76 93 95 103 113 116 120 128 136 140 140 138 136 132 121 107 99 97 98 101 101 98 91 84 83 83 84 85 84 80 79 82 81 75 71 70 68 68 71 76 79 78 76 73 69 65 61 56 52 48 42 36 32 29 25 20 16 13 8 4 2
20 85 126 311 333 51 57 41 15 277 307 332 343 345 325 314 283 260 6 57 72 75 78 67 52 79 109 112 112 115 117 120 127 129 130 131 127 126 126 120 116 118 114 110 109 107 102 96 91 87 85 82 79 77 72 74 80 81 77 73 69 66 69 74 77 77 76 74 70 66 62 58 54 50 46 40 34 30 26 21 16 12 9 5 1 359
20 113 131 119 34 80 102 132 258 281 295 315 337 299 310 341 10 57 78 79 68 65 75 76 74 83 102 111 112 110 111 114 118 120 120 114 108 108 106 104 113 122 121 117 116 112 106 101 98 93 89 84 79 76 70 69 74 77 76 72 67 67 73 77 76 75 73 71 68 64 60 57 53 47 42 36 31 26 23 18 12 9 6 2 0 358
34 90 98 91 53 55 75 58 359 343 338 352 13 23 34 41 46 64 77 76 71 76 81 84 88 88 89 99 103 100 103 111 109 107 108 105 100 99 97 96 107 119 121 120 120 117 112 107 102 97 93 86 80 75 70 67 68 72 71 66 62 64 68 70 70 69 67 64 62 59 56 54 51 46 40 34 29 25 22 17 12 10 6 2 359 356
335 76 79 74 60 54 52 13 351 342 334 352 21 48 57 57 57 67 78 84 83 82 80 80 85 87 82 87 94 91 92 100 99 92 89 92 92 93 92 95 107 121 126 127 126 123 119 113 108 103 97 91 84 77 74 70 69 70 67 62 60 59 58 59 59 59 58 56 54 50 47 47 46 41 36 30 26 24 23 21 19 17 14 9 2 354
353 77 75 65 66 79 192 289 319 336 350 4 22 49 63 68 73 74 79 88 84 78 74 72 75 79 80 81 88 89 80 78 91 96 89 83 88 88 88 94 108 123 131 135 134 129 121 115 111 105 99 95 90 82 78 75 73 71 68 64 61 57 55 57 56 54 51 51 51 48 44 42 38 32 26 23 22 23 24 24 23 21 20 17 9 359
4 48 56 58 53 41 285 279 343 15 20 15 20 31 43 71 88 86 82 85 85 82 76 70 69 80 94 97 101 103 93 83 98 105 101 95 96 95 96 103 114 128 137 140 138 130 120 114 111 106 103 102 98 89 82 77 74 70 66 64 60 53 53 56 57 57 54 49 49 50 46 40 33 25 21 19 20 23 25 22 17 15 15 15 11 4
41 79 97 75 63 14 254 223 142 85 82 335 6 12 3 36 97 102 99 100 101 104 104 93 84 88 104 119 129 125 116 119 123 116 110 109 109 108 108 112 120 132 141 143 140 133 126 121 117 114 112 111 107 98 90 84 79 73 68 68 63 55 56 60 65 68 60 48 45 48 45 39 30 24 21 20 18 18 19 19 16 13 11 9 8 5
121 158 168 115 118 240 248 219 157 111 142 201 247 348 342 0 85 103 106 111 119 126 127 124 121 113 105 120 136 136 134 138 130 116 103 96 101 106 110 117 124 133 143 147 144 139 135 132 129 124 120 116 112 104 96 88 83 77 71 64 54 45 54 67 71 67 55 43 41 44 41 35 29 24 23 23 19 14 10 7 8 11 11 7 1 360